UAL2304 KIAH-KPIT

Flight info

Callsign UAL2304
Flight time 2h 15m
Altitude 37000
Route LURIC8 ORRTH CRAMM BNA JPU FEWGA7
Aircraft B38M/M-SDE1FGHILORVWXY/HB1

Departure

Time 2026-05-05 19:21
Airport George Bush Intercontinental Airport (KIAH)

Arrival

Time 2026-05-05 21:37
Airport Pittsburgh International Airport (KPIT)
Time Latitude Longitude Altitude Speed Heading
2026-05-05 18:40 29.98494 -95.33795 109 ft 0 kts 292°
2026-05-05 19:05 29.98490 -95.33784 119 ft 4 kts 295°
2026-05-05 19:05 29.98475 -95.33759 108 ft 4 kts 320°
2026-05-05 19:05 29.98457 -95.33747 108 ft 3 kts 335°
2026-05-05 19:06 29.98437 -95.33730 109 ft 4 kts 301°
2026-05-05 19:06 29.98433 -95.33705 109 ft 4 kts 244°
2026-05-05 19:06 29.98449 -95.33692 107 ft 4 kts 180°
2026-05-05 19:06 29.98470 -95.33692 109 ft 0 kts 180°
2026-05-05 19:08 29.98468 -95.33692 109 ft 1 kts 180°
2026-05-05 19:09 29.98450 -95.33692 109 ft 4 kts 180°
2026-05-05 19:09 29.98417 -95.33693 109 ft 6 kts 180°
2026-05-05 19:09 29.98367 -95.33693 109 ft 8 kts 180°
2026-05-05 19:09 29.98303 -95.33692 109 ft 10 kts 176°
2026-05-05 19:10 29.98247 -95.33731 109 ft 11 kts 258°
2026-05-05 19:10 29.98245 -95.33825 109 ft 14 kts 269°
2026-05-05 19:10 29.98247 -95.33980 109 ft 24 kts 278°
2026-05-05 19:10 29.98302 -95.34140 108 ft 17 kts 276°
2026-05-05 19:11 29.98305 -95.34305 110 ft 24 kts 270°
2026-05-05 19:11 29.98292 -95.34488 109 ft 13 kts 249°
2026-05-05 19:11 29.98262 -95.34606 109 ft 14 kts 262°
2026-05-05 19:11 29.98260 -95.34737 109 ft 7 kts 268°
2026-05-05 19:12 29.98257 -95.34822 110 ft 14 kts 269°
2026-05-05 19:12 29.98257 -95.34922 110 ft 11 kts 270°
2026-05-05 19:12 29.98257 -95.35028 109 ft 0 kts 270°
2026-05-05 19:12 29.98257 -95.35058 109 ft 8 kts 270°
2026-05-05 19:13 29.98257 -95.35065 109 ft 0 kts 270°
2026-05-05 19:14 29.98260 -95.35090 109 ft 10 kts 284°
2026-05-05 19:14 29.98326 -95.35165 109 ft 13 kts 331°
2026-05-05 19:14 29.98416 -95.35222 109 ft 16 kts 331°
2026-05-05 19:15 29.98524 -95.35287 109 ft 19 kts 335°
2026-05-05 19:15 29.98628 -95.35354 109 ft 17 kts 335°
2026-05-05 19:15 29.98740 -95.35421 109 ft 19 kts 333°
2026-05-05 19:15 29.98818 -95.35468 109 ft 10 kts 332°
2026-05-05 19:16 29.98880 -95.35522 108 ft 12 kts 295°
2026-05-05 19:16 29.98864 -95.35599 110 ft 5 kts 243°
2026-05-05 19:16 29.98859 -95.35609 110 ft 1 kts 243°
2026-05-05 19:16 29.98857 -95.35614 107 ft 0 kts 243°
2026-05-05 19:17 29.98848 -95.35634 110 ft 7 kts 243°
2026-05-05 19:17 29.98830 -95.35675 110 ft 0 kts 242°
2026-05-05 19:17 29.98825 -95.35685 108 ft 2 kts 242°
2026-05-05 19:18 29.98814 -95.35710 108 ft 6 kts 242°
2026-05-05 19:18 29.98786 -95.35769 110 ft 6 kts 238°
2026-05-05 19:18 29.98759 -95.35769 111 ft 0 kts 153°
2026-05-05 19:18 29.98756 -95.35767 111 ft 0 kts 153°
2026-05-05 19:19 29.98755 -95.35766 111 ft 1 kts 153°
2026-05-05 19:19 29.98740 -95.35758 110 ft 0 kts 153°
2026-05-05 19:20 29.98738 -95.35756 110 ft 2 kts 153°
2026-05-05 19:20 29.98715 -95.35743 111 ft 7 kts 153°
2026-05-05 19:20 29.98480 -95.35600 110 ft 80 kts 152°
2026-05-05 19:20 29.97749 -95.35151 110 ft 155 kts 153°
2026-05-05 19:21 29.96685 -95.34534 593 ft 185 kts 154°
2026-05-05 19:21 29.95650 -95.33720 1712 ft 186 kts 136°
2026-05-05 19:21 29.95138 -95.32259 2427 ft 217 kts 100°
2026-05-05 19:21 29.95427 -95.30460 2834 ft 246 kts 69°
2026-05-05 19:22 29.96522 -95.28879 2955 ft 260 kts 36°
2026-05-05 19:22 29.98177 -95.28018 3083 ft 266 kts 14°
2026-05-05 19:22 29.99982 -95.27514 3202 ft 266 kts 12°
2026-05-05 19:22 30.01792 -95.27045 3301 ft 268 kts 11°
2026-05-05 19:23 30.03612 -95.26560 3342 ft 269 kts 12°
2026-05-05 19:23 30.05414 -95.26092 3497 ft 269 kts 12°
2026-05-05 19:23 30.07242 -95.25625 3550 ft 270 kts 11°
2026-05-05 19:23 30.09131 -95.25137 3674 ft 283 kts 11°
2026-05-05 19:24 30.11066 -95.24625 3787 ft 289 kts 12°
2026-05-05 19:24 30.12941 -95.23797 3868 ft 291 kts 35°
2026-05-05 19:24 30.14415 -95.22225 4550 ft 288 kts 45°
2026-05-05 19:24 30.16041 -95.20828 5538 ft 295 kts 33°
2026-05-05 19:25 30.17754 -95.19503 6570 ft 298 kts 33°
2026-05-05 19:25 30.19491 -95.18134 7444 ft 304 kts 33°
2026-05-05 19:25 30.21231 -95.16749 8471 ft 304 kts 32°
2026-05-05 19:25 30.22991 -95.15341 9377 ft 310 kts 33°
2026-05-05 19:26 30.24760 -95.13916 10304 ft 313 kts 32°
2026-05-05 19:26 30.26594 -95.12440 10825 ft 330 kts 33°
2026-05-05 19:26 30.28517 -95.10888 11384 ft 344 kts 32°
2026-05-05 19:26 30.30496 -95.09290 12181 ft 348 kts 32°
2026-05-05 19:27 30.32473 -95.07694 12923 ft 355 kts 31°
2026-05-05 19:27 30.34515 -95.06045 13662 ft 360 kts 31°
2026-05-05 19:27 30.36583 -95.04373 14341 ft 365 kts 31°
2026-05-05 19:27 30.38680 -95.02678 15044 ft 369 kts 30°
2026-05-05 19:28 30.40798 -95.00964 15726 ft 373 kts 30°
2026-05-05 19:28 30.42940 -94.99230 16389 ft 378 kts 30°
2026-05-05 19:28 30.45106 -94.97475 17054 ft 382 kts 30°
2026-05-05 19:28 30.46585 -94.96277 17485 ft 385 kts 29°
2026-05-05 19:29 30.48763 -94.94512 18130 ft 389 kts 29°
2026-05-05 19:29 30.50992 -94.92704 18724 ft 392 kts 28°
2026-05-05 19:29 30.53236 -94.90882 19267 ft 395 kts 28°
2026-05-05 19:29 30.55514 -94.89068 19821 ft 397 kts 26°
2026-05-05 19:30 30.58590 -94.86717 20551 ft 402 kts 25°
2026-05-05 19:30 30.60171 -94.85505 20917 ft 404 kts 25°
2026-05-05 19:30 30.62529 -94.83692 21436 ft 407 kts 25°
2026-05-05 19:30 30.64898 -94.81870 21967 ft 410 kts 25°
2026-05-05 19:31 30.67287 -94.80029 22485 ft 413 kts 25°
2026-05-05 19:31 30.69692 -94.78178 23001 ft 417 kts 24°
2026-05-05 19:31 30.72111 -94.76312 23477 ft 420 kts 24°
2026-05-05 19:31 30.74553 -94.74428 23912 ft 423 kts 24°
2026-05-05 19:32 30.76980 -94.72553 24317 ft 426 kts 24°
2026-05-05 19:32 30.79463 -94.70635 24723 ft 429 kts 24°
2026-05-05 19:32 30.81957 -94.68706 25138 ft 432 kts 24°
2026-05-05 19:32 30.84466 -94.66765 25534 ft 435 kts 24°
2026-05-05 19:33 30.86995 -94.64807 25934 ft 438 kts 24°
2026-05-05 19:33 30.89546 -94.62832 26353 ft 441 kts 24°
2026-05-05 19:33 30.92107 -94.60847 26706 ft 444 kts 24°
2026-05-05 19:33 30.94693 -94.58840 27088 ft 447 kts 24°
2026-05-05 19:34 30.97283 -94.56831 27477 ft 449 kts 24°
2026-05-05 19:34 30.99888 -94.54808 27882 ft 450 kts 24°
2026-05-05 19:34 31.02504 -94.52781 28244 ft 453 kts 24°
2026-05-05 19:35 31.07784 -94.48685 28940 ft 458 kts 24°
2026-05-05 19:35 31.10413 -94.46644 29281 ft 461 kts 24°
2026-05-05 19:35 31.13090 -94.44564 29625 ft 464 kts 24°
2026-05-05 19:35 31.15785 -94.42468 29960 ft 466 kts 24°
2026-05-05 19:36 31.18496 -94.40359 30267 ft 469 kts 24°
2026-05-05 19:36 31.21221 -94.38234 30527 ft 473 kts 24°
2026-05-05 19:36 31.23960 -94.36098 30794 ft 475 kts 24°
2026-05-05 19:36 31.26719 -94.33943 31076 ft 478 kts 24°
2026-05-05 19:37 31.29492 -94.31778 31330 ft 481 kts 24°
2026-05-05 19:37 31.32284 -94.29596 31607 ft 483 kts 24°
2026-05-05 19:37 31.35089 -94.27402 31858 ft 486 kts 24°
2026-05-05 19:37 31.37909 -94.25195 32138 ft 488 kts 24°
2026-05-05 19:38 31.40743 -94.22976 32376 ft 491 kts 24°
2026-05-05 19:38 31.43588 -94.20745 32624 ft 494 kts 24°
2026-05-05 19:38 31.46417 -94.18527 32905 ft 496 kts 24°
2026-05-05 19:38 31.49287 -94.16273 33218 ft 497 kts 24°
2026-05-05 19:39 31.52168 -94.14009 33454 ft 499 kts 23°
2026-05-05 19:39 31.55063 -94.11734 33679 ft 502 kts 23°
2026-05-05 19:39 31.57967 -94.09448 33924 ft 504 kts 23°
2026-05-05 19:39 31.60885 -94.07150 34203 ft 504 kts 23°
2026-05-05 19:40 31.63795 -94.04856 34508 ft 504 kts 23°
2026-05-05 19:40 31.66704 -94.02562 34820 ft 503 kts 23°
2026-05-05 19:40 31.69607 -94.00271 35133 ft 502 kts 23°
2026-05-05 19:40 31.72505 -93.97982 35445 ft 500 kts 23°
2026-05-05 19:41 31.75389 -93.95704 35790 ft 499 kts 23°
2026-05-05 19:41 31.78163 -93.93176 36055 ft 513 kts 36°
2026-05-05 19:41 31.80487 -93.89931 36350 ft 522 kts 44°
2026-05-05 19:41 31.82724 -93.86568 36563 ft 522 kts 43°
2026-05-05 19:42 31.84931 -93.83236 36783 ft 522 kts 44°
2026-05-05 19:42 31.89374 -93.76469 36837 ft 520 kts 44°
2026-05-05 19:43 31.93779 -93.69749 36848 ft 519 kts 44°
2026-05-05 19:43 31.98183 -93.63019 36849 ft 519 kts 44°
2026-05-05 19:44 32.02586 -93.56279 36864 ft 519 kts 44°
2026-05-05 19:44 32.06994 -93.49519 36843 ft 520 kts 44°
2026-05-05 19:45 32.11406 -93.42740 36838 ft 521 kts 44°
2026-05-05 19:45 32.15816 -93.35952 36840 ft 521 kts 44°
2026-05-05 19:46 32.20200 -93.29192 36837 ft 521 kts 44°
2026-05-05 19:46 32.24600 -93.22397 36834 ft 521 kts 44°
2026-05-05 19:47 32.28997 -93.15593 36839 ft 521 kts 44°
2026-05-05 19:47 32.33393 -93.08781 36847 ft 522 kts 44°
2026-05-05 19:48 32.37795 -93.01943 36846 ft 521 kts 43°
2026-05-05 19:48 32.42177 -92.95124 36841 ft 520 kts 43°
2026-05-05 19:49 32.46532 -92.88337 36845 ft 520 kts 43°
2026-05-05 19:49 32.50914 -92.81495 36839 ft 520 kts 43°
2026-05-05 19:50 32.55287 -92.74638 36870 ft 523 kts 46°
2026-05-05 19:50 32.59321 -92.67444 36920 ft 526 kts 47°
2026-05-05 19:51 32.63395 -92.60253 36867 ft 524 kts 46°
2026-05-05 19:51 32.67469 -92.53077 36874 ft 524 kts 46°
2026-05-05 19:52 32.71548 -92.45878 36855 ft 524 kts 47°
2026-05-05 19:52 32.75593 -92.38726 36853 ft 525 kts 47°
2026-05-05 19:53 32.79664 -92.31515 36852 ft 525 kts 47°
2026-05-05 19:53 32.83719 -92.24318 36869 ft 522 kts 47°
2026-05-05 19:54 32.87762 -92.17130 36907 ft 522 kts 46°
2026-05-05 19:54 32.91810 -92.09915 36879 ft 523 kts 46°
2026-05-05 19:55 32.95827 -92.02744 36875 ft 524 kts 46°
2026-05-05 19:55 32.99867 -91.95518 36877 ft 524 kts 46°
2026-05-05 19:56 33.03900 -91.88293 36876 ft 523 kts 46°
2026-05-05 19:56 33.07918 -91.81075 36866 ft 522 kts 46°
2026-05-05 19:57 33.11931 -91.73857 36864 ft 522 kts 46°
2026-05-05 19:57 33.15940 -91.66632 36907 ft 522 kts 46°
2026-05-05 19:58 33.19946 -91.59393 36863 ft 522 kts 46°
2026-05-05 19:58 33.23951 -91.52146 36876 ft 523 kts 46°
2026-05-05 19:59 33.27923 -91.44943 36866 ft 521 kts 46°
2026-05-05 19:59 33.31908 -91.37704 36872 ft 521 kts 46°
2026-05-05 20:00 33.35891 -91.30453 36881 ft 521 kts 46°
2026-05-05 20:00 33.39874 -91.23188 36883 ft 521 kts 46°
2026-05-05 20:01 33.43820 -91.15976 36889 ft 521 kts 46°
2026-05-05 20:01 33.47785 -91.08715 36886 ft 520 kts 46°
2026-05-05 20:02 33.51741 -91.01457 36887 ft 520 kts 46°
2026-05-05 20:02 33.55694 -90.94189 36888 ft 520 kts 46°
2026-05-05 20:03 33.59641 -90.86917 36892 ft 520 kts 46°
2026-05-05 20:03 33.63580 -90.79648 36892 ft 520 kts 46°
2026-05-05 20:04 33.67497 -90.72404 36900 ft 519 kts 46°
2026-05-05 20:04 33.71419 -90.65136 36896 ft 518 kts 46°
2026-05-05 20:05 33.75337 -90.57860 36870 ft 518 kts 46°
2026-05-05 20:05 33.79255 -90.50569 36881 ft 519 kts 46°
2026-05-05 20:06 33.83167 -90.43275 36884 ft 519 kts 46°
2026-05-05 20:06 33.87050 -90.36024 36905 ft 518 kts 46°
2026-05-05 20:07 33.90953 -90.28716 36891 ft 517 kts 46°
2026-05-05 20:07 33.94841 -90.21424 36892 ft 517 kts 46°
2026-05-05 20:08 33.98702 -90.14166 36901 ft 518 kts 46°
2026-05-05 20:08 34.02592 -90.06841 36907 ft 519 kts 46°
2026-05-05 20:09 34.06477 -89.99508 36901 ft 519 kts 46°
2026-05-05 20:09 34.10346 -89.92193 36888 ft 516 kts 46°
2026-05-05 20:10 34.14207 -89.84878 36899 ft 516 kts 46°
2026-05-05 20:10 34.18067 -89.77550 36892 ft 516 kts 46°
2026-05-05 20:11 34.21895 -89.70266 36933 ft 517 kts 46°
2026-05-05 20:11 34.25744 -89.62927 36908 ft 516 kts 46°
2026-05-05 20:12 34.29595 -89.55570 36919 ft 517 kts 46°
2026-05-05 20:12 34.33438 -89.48215 36914 ft 517 kts 46°
2026-05-05 20:13 34.37256 -89.40890 36921 ft 517 kts 46°
2026-05-05 20:13 34.41094 -89.33514 36910 ft 517 kts 46°
2026-05-05 20:14 34.44921 -89.26144 36905 ft 517 kts 47°
2026-05-05 20:14 34.48746 -89.18766 36930 ft 516 kts 46°
2026-05-05 20:15 34.52561 -89.11391 36899 ft 515 kts 46°
2026-05-05 20:15 34.56370 -89.04012 36906 ft 516 kts 46°
2026-05-05 20:16 34.60148 -88.96680 36912 ft 516 kts 46°
2026-05-05 20:16 34.64032 -88.89386 36904 ft 504 kts 38°
2026-05-05 20:17 34.68519 -88.82911 36908 ft 500 kts 37°
2026-05-05 20:17 34.72990 -88.76474 36943 ft 497 kts 37°
2026-05-05 20:18 34.77446 -88.70073 36921 ft 498 kts 37°
2026-05-05 20:18 34.81926 -88.63628 36913 ft 498 kts 37°
2026-05-05 20:19 34.86403 -88.57176 36915 ft 499 kts 37°
2026-05-05 20:19 34.90121 -88.51808 36916 ft 499 kts 37°
2026-05-05 20:20 34.95326 -88.44278 36921 ft 497 kts 37°
2026-05-05 20:20 34.99025 -88.38919 36939 ft 496 kts 37°
2026-05-05 20:21 35.03473 -88.32462 36915 ft 497 kts 37°
2026-05-05 20:21 35.07923 -88.25990 36921 ft 497 kts 37°
2026-05-05 20:22 35.12368 -88.19514 36907 ft 497 kts 37°
2026-05-05 20:22 35.16812 -88.13027 36878 ft 498 kts 37°
2026-05-05 20:23 35.21225 -88.06573 36936 ft 497 kts 38°
2026-05-05 20:23 35.25639 -88.00106 36930 ft 494 kts 38°
2026-05-05 20:24 35.30047 -87.93636 36916 ft 495 kts 38°
2026-05-05 20:24 35.34457 -87.87150 36910 ft 495 kts 38°
2026-05-05 20:25 35.38867 -87.80654 36915 ft 495 kts 38°
2026-05-05 20:25 35.43269 -87.74154 36910 ft 495 kts 38°
2026-05-05 20:26 35.47636 -87.67696 36931 ft 494 kts 38°
2026-05-05 20:26 35.52016 -87.61205 36918 ft 493 kts 38°
2026-05-05 20:27 35.56396 -87.54702 36918 ft 494 kts 38°
2026-05-05 20:27 35.60775 -87.48190 36921 ft 494 kts 38°
2026-05-05 20:28 35.65151 -87.41669 36909 ft 494 kts 38°
2026-05-05 20:28 35.69498 -87.35179 36913 ft 494 kts 38°
2026-05-05 20:29 35.73859 -87.28655 36937 ft 492 kts 39°
2026-05-05 20:29 35.78209 -87.22135 36902 ft 492 kts 39°
2026-05-05 20:30 35.82562 -87.15599 36896 ft 493 kts 39°
2026-05-05 20:30 35.86909 -87.09060 36907 ft 493 kts 39°
2026-05-05 20:31 35.91225 -87.02553 36900 ft 493 kts 39°
2026-05-05 20:31 35.95577 -86.95980 36887 ft 493 kts 39°
2026-05-05 20:32 35.99905 -86.89434 36887 ft 491 kts 39°
2026-05-05 20:32 36.04195 -86.82933 36908 ft 491 kts 39°
2026-05-05 20:33 36.08513 -86.76378 36915 ft 491 kts 39°
2026-05-05 20:33 36.12835 -86.69806 36917 ft 491 kts 38°
2026-05-05 20:34 36.17171 -86.63368 36911 ft 490 kts 38°
2026-05-05 20:34 36.21531 -86.56875 36940 ft 491 kts 38°
2026-05-05 20:35 36.25891 -86.50371 36921 ft 489 kts 39°
2026-05-05 20:35 36.30231 -86.43885 36934 ft 489 kts 39°
2026-05-05 20:36 36.34575 -86.37379 36930 ft 489 kts 39°
2026-05-05 20:36 36.38911 -86.30875 36934 ft 489 kts 39°
2026-05-05 20:37 36.43220 -86.24396 36905 ft 489 kts 39°
2026-05-05 20:37 36.47558 -86.17865 36944 ft 490 kts 39°
2026-05-05 20:38 36.51883 -86.11335 36901 ft 487 kts 39°
2026-05-05 20:38 36.56165 -86.04862 36924 ft 488 kts 39°
2026-05-05 20:39 36.60500 -85.98295 36900 ft 487 kts 39°
2026-05-05 20:39 36.64775 -85.91807 36912 ft 488 kts 39°
2026-05-05 20:40 36.69075 -85.85266 36926 ft 488 kts 39°
2026-05-05 20:40 36.73383 -85.78702 36905 ft 488 kts 39°
2026-05-05 20:41 36.77656 -85.72178 36910 ft 488 kts 39°
2026-05-05 20:41 36.81950 -85.65609 36915 ft 489 kts 39°
2026-05-05 20:42 36.86253 -85.59013 36907 ft 488 kts 39°
2026-05-05 20:42 36.90541 -85.52429 36917 ft 488 kts 39°
2026-05-05 20:43 36.94815 -85.45852 36907 ft 491 kts 39°
2026-05-05 20:43 36.99123 -85.39210 36924 ft 490 kts 39°
2026-05-05 20:44 37.03410 -85.32585 36923 ft 489 kts 39°
2026-05-05 20:44 37.07696 -85.25951 36918 ft 489 kts 39°
2026-05-05 20:45 37.14089 -85.16030 36948 ft 490 kts 39°
2026-05-05 20:45 37.18370 -85.09370 36921 ft 491 kts 39°
2026-05-05 20:46 37.22656 -85.02690 36930 ft 490 kts 39°
2026-05-05 20:46 37.26922 -84.96026 36921 ft 489 kts 39°
2026-05-05 20:47 37.31183 -84.89358 36926 ft 490 kts 39°
2026-05-05 20:47 37.35417 -84.82717 36917 ft 489 kts 39°
2026-05-05 20:48 37.39673 -84.76029 36913 ft 490 kts 39°
2026-05-05 20:48 37.43937 -84.69314 36910 ft 490 kts 39°
2026-05-05 20:49 37.48192 -84.62602 36925 ft 489 kts 39°
2026-05-05 20:49 37.52428 -84.55902 36914 ft 489 kts 39°
2026-05-05 20:50 37.56640 -84.49231 36925 ft 489 kts 40°
2026-05-05 20:50 37.60875 -84.42508 36907 ft 490 kts 40°
2026-05-05 20:51 37.65122 -84.35753 36927 ft 492 kts 40°
2026-05-05 20:51 37.69367 -84.28984 36922 ft 491 kts 40°
2026-05-05 20:52 37.73595 -84.22231 36919 ft 488 kts 39°
2026-05-05 20:52 37.77799 -84.15503 36923 ft 489 kts 40°
2026-05-05 20:53 37.82015 -84.08744 36943 ft 489 kts 39°
2026-05-05 20:53 37.86208 -84.02004 36890 ft 491 kts 40°
2026-05-05 20:54 37.90434 -83.95199 36908 ft 492 kts 40°
2026-05-05 20:54 37.94656 -83.88385 36915 ft 490 kts 40°
2026-05-05 20:55 37.98834 -83.81626 36923 ft 488 kts 40°
2026-05-05 20:55 38.03024 -83.74840 36936 ft 489 kts 40°
2026-05-05 20:56 38.07219 -83.68025 36890 ft 491 kts 40°
2026-05-05 20:56 38.11418 -83.61194 36889 ft 491 kts 40°
2026-05-05 20:57 38.15615 -83.54350 36878 ft 491 kts 40°
2026-05-05 20:57 38.19767 -83.47564 36886 ft 488 kts 40°
2026-05-05 20:58 38.23930 -83.40747 36905 ft 488 kts 40°
2026-05-05 20:58 38.28090 -83.33922 36911 ft 488 kts 40°
2026-05-05 20:59 38.32256 -83.27072 36911 ft 488 kts 40°
2026-05-05 20:59 38.36407 -83.20230 36912 ft 488 kts 40°
2026-05-05 21:00 38.40515 -83.13449 36932 ft 488 kts 41°
2026-05-05 21:00 38.44627 -83.06647 36922 ft 487 kts 41°
2026-05-05 21:01 38.48770 -82.99778 36897 ft 490 kts 41°
2026-05-05 21:01 38.52921 -82.92879 36901 ft 490 kts 41°
2026-05-05 21:02 38.57076 -82.85958 36901 ft 490 kts 41°
2026-05-05 21:02 38.61223 -82.79038 36902 ft 490 kts 41°
2026-05-05 21:03 38.65360 -82.72118 36893 ft 488 kts 41°
2026-05-05 21:03 38.69463 -82.65244 36888 ft 490 kts 41°
2026-05-05 21:04 38.73596 -82.58300 36892 ft 490 kts 41°
2026-05-05 21:04 38.77730 -82.51341 36887 ft 489 kts 41°
2026-05-05 21:05 38.81850 -82.44394 36895 ft 490 kts 41°
2026-05-05 21:05 38.85978 -82.37413 36904 ft 490 kts 42°
2026-05-05 21:06 38.90086 -82.30456 36900 ft 489 kts 42°
2026-05-05 21:06 38.94167 -82.23529 36887 ft 489 kts 42°
2026-05-05 21:07 38.98260 -82.16562 36882 ft 490 kts 42°
2026-05-05 21:07 39.02366 -82.09564 36881 ft 489 kts 42°
2026-05-05 21:08 39.06459 -82.02565 36867 ft 489 kts 42°
2026-05-05 21:08 39.10564 -81.95538 36883 ft 491 kts 43°
2026-05-05 21:09 39.13951 -81.89721 36744 ft 480 kts 42°
2026-05-05 21:09 39.15948 -81.86294 36265 ft 477 kts 43°
2026-05-05 21:09 39.18581 -81.81768 35517 ft 475 kts 44°
2026-05-05 21:10 39.20556 -81.78367 35022 ft 473 kts 44°
2026-05-05 21:10 39.21882 -81.76080 34718 ft 471 kts 44°
2026-05-05 21:10 39.23839 -81.72705 34251 ft 468 kts 45°
2026-05-05 21:10 39.25785 -81.69346 33747 ft 466 kts 45°
2026-05-05 21:11 39.27701 -81.66035 33195 ft 465 kts 46°
2026-05-05 21:11 39.29629 -81.62699 32712 ft 463 kts 46°
2026-05-05 21:11 39.31546 -81.59379 32254 ft 460 kts 46°
2026-05-05 21:11 39.33450 -81.56078 31802 ft 457 kts 47°
2026-05-05 21:12 39.35343 -81.52793 31355 ft 454 kts 47°
2026-05-05 21:12 39.37223 -81.49527 30911 ft 452 kts 47°
2026-05-05 21:12 39.39094 -81.46274 30457 ft 450 kts 47°
2026-05-05 21:12 39.40955 -81.43035 30016 ft 448 kts 48°
2026-05-05 21:13 39.42810 -81.39803 29525 ft 446 kts 48°
2026-05-05 21:13 39.44863 -81.36853 28945 ft 435 kts 32°
2026-05-05 21:13 39.47295 -81.34593 28425 ft 429 kts 28°
2026-05-05 21:13 39.49658 -81.32265 28050 ft 422 kts 31°
2026-05-05 21:14 39.51971 -81.29971 27617 ft 415 kts 30°
2026-05-05 21:14 39.54262 -81.27737 27126 ft 409 kts 30°
2026-05-05 21:14 39.56532 -81.25556 26683 ft 404 kts 30°
2026-05-05 21:14 39.58738 -81.23434 26325 ft 396 kts 30°
2026-05-05 21:15 39.60935 -81.21319 25924 ft 390 kts 30°
2026-05-05 21:15 39.63098 -81.19233 25525 ft 385 kts 30°
2026-05-05 21:15 39.65231 -81.17174 25137 ft 380 kts 31°
2026-05-05 21:15 39.67343 -81.15135 24752 ft 377 kts 31°
2026-05-05 21:16 39.69471 -81.13080 24393 ft 383 kts 31°
2026-05-05 21:16 39.71616 -81.11005 23978 ft 386 kts 31°
2026-05-05 21:16 39.73777 -81.08913 23571 ft 387 kts 32°
2026-05-05 21:16 39.75934 -81.06823 23116 ft 386 kts 32°
2026-05-05 21:17 39.78080 -81.04741 22679 ft 384 kts 32°
2026-05-05 21:17 39.80219 -81.02667 22291 ft 383 kts 32°
2026-05-05 21:17 39.82328 -81.00619 21910 ft 383 kts 32°
2026-05-05 21:17 39.84458 -80.98548 21509 ft 382 kts 33°
2026-05-05 21:18 39.86583 -80.96480 21118 ft 381 kts 33°
2026-05-05 21:18 39.88703 -80.94416 20732 ft 380 kts 33°
2026-05-05 21:18 39.90818 -80.92356 20353 ft 379 kts 33°
2026-05-05 21:18 39.92929 -80.90299 19952 ft 379 kts 34°
2026-05-05 21:19 39.95043 -80.88236 19561 ft 379 kts 34°
2026-05-05 21:19 39.97154 -80.86173 19175 ft 379 kts 34°
2026-05-05 21:19 39.99266 -80.84111 18787 ft 378 kts 34°
2026-05-05 21:19 40.01367 -80.82048 18419 ft 378 kts 36°
2026-05-05 21:20 40.03293 -80.79708 18048 ft 378 kts 43°
2026-05-05 21:20 40.05164 -80.77309 17668 ft 376 kts 42°
2026-05-05 21:20 40.07018 -80.74971 17286 ft 374 kts 42°
2026-05-05 21:20 40.08895 -80.72627 16919 ft 372 kts 41°
2026-05-05 21:21 40.10767 -80.70297 16558 ft 371 kts 41°
2026-05-05 21:21 40.12635 -80.67970 16150 ft 371 kts 43°
2026-05-05 21:21 40.14443 -80.65555 15715 ft 370 kts 44°
2026-05-05 21:21 40.16207 -80.63188 15369 ft 359 kts 43°
2026-05-05 21:22 40.17929 -80.60887 15012 ft 349 kts 44°
2026-05-05 21:22 40.19605 -80.58640 14608 ft 342 kts 44°
2026-05-05 21:22 40.21255 -80.56430 14257 ft 338 kts 44°
2026-05-05 21:22 40.22893 -80.54234 13935 ft 337 kts 44°
2026-05-05 21:23 40.24531 -80.52040 13573 ft 336 kts 44°
2026-05-05 21:23 40.26155 -80.49836 13195 ft 337 kts 48°
2026-05-05 21:23 40.27414 -80.47257 12764 ft 337 kts 64°
2026-05-05 21:23 40.28477 -80.44534 12441 ft 335 kts 63°
2026-05-05 21:24 40.29543 -80.41841 12125 ft 334 kts 63°
2026-05-05 21:24 40.30613 -80.39139 11791 ft 334 kts 63°
2026-05-05 21:24 40.31691 -80.36421 11433 ft 337 kts 63°
2026-05-05 21:24 40.32758 -80.33721 11043 ft 339 kts 64°
2026-05-05 21:25 40.33504 -80.30805 10602 ft 338 kts 86°
2026-05-05 21:25 40.33395 -80.27807 10289 ft 323 kts 106°
2026-05-05 21:25 40.32849 -80.25000 9982 ft 313 kts 110°
2026-05-05 21:25 40.32271 -80.22310 9816 ft 298 kts 111°
2026-05-05 21:26 40.31726 -80.19766 9747 ft 281 kts 111°
2026-05-05 21:26 40.31202 -80.17334 9665 ft 278 kts 111°
2026-05-05 21:26 40.30663 -80.14831 9599 ft 289 kts 111°
2026-05-05 21:26 40.30116 -80.12261 9536 ft 294 kts 111°
2026-05-05 21:27 40.29563 -80.09666 9245 ft 298 kts 111°
2026-05-05 21:27 40.28993 -80.07044 8639 ft 307 kts 110°
2026-05-05 21:27 40.28749 -80.04195 8155 ft 318 kts 86°
2026-05-05 21:27 40.29378 -80.01484 7947 ft 314 kts 64°
2026-05-05 21:28 40.30423 -79.99048 7781 ft 302 kts 60°
2026-05-05 21:28 40.31476 -79.96658 7236 ft 305 kts 60°
2026-05-05 21:28 40.32545 -79.94235 6646 ft 308 kts 60°
2026-05-05 21:28 40.33631 -79.91790 6060 ft 311 kts 61°
2026-05-05 21:29 40.34712 -79.89351 5599 ft 307 kts 60°
2026-05-05 21:29 40.35774 -79.86967 5253 ft 298 kts 58°
2026-05-05 21:29 40.37133 -79.85029 5066 ft 281 kts 30°
2026-05-05 21:29 40.38865 -79.84142 4914 ft 257 kts
2026-05-05 21:30 40.40572 -79.84157 4852 ft 237 kts 350°
2026-05-05 21:30 40.42178 -79.84266 4830 ft 229 kts 351°
2026-05-05 21:30 40.43801 -79.84384 4814 ft 237 kts 348°
2026-05-05 21:30 40.45328 -79.85039 4763 ft 227 kts 317°
2026-05-05 21:31 40.46431 -79.86452 4650 ft 220 kts 302°
2026-05-05 21:31 40.47298 -79.88045 4551 ft 214 kts 289°
2026-05-05 21:31 40.47703 -79.89895 4405 ft 206 kts 271°
2026-05-05 21:31 40.47785 -79.91734 4358 ft 203 kts 267°
2026-05-05 21:32 40.47833 -79.93595 4332 ft 205 kts 267°
2026-05-05 21:32 40.47883 -79.95467 4330 ft 205 kts 267°
2026-05-05 21:32 40.47933 -79.97341 4235 ft 205 kts 268°
2026-05-05 21:32 40.47983 -79.99215 4100 ft 205 kts 267°
2026-05-05 21:33 40.48033 -80.01092 3978 ft 204 kts 267°
2026-05-05 21:33 40.48083 -80.02954 3741 ft 203 kts 268°
2026-05-05 21:33 40.48132 -80.04787 3508 ft 202 kts 268°
2026-05-05 21:33 40.48181 -80.06561 3264 ft 181 kts 268°
2026-05-05 21:34 40.48225 -80.08094 3094 ft 158 kts 266°
2026-05-05 21:34 40.48259 -80.09499 2876 ft 151 kts 267°
2026-05-05 21:34 40.48293 -80.10854 2657 ft 147 kts 268°
2026-05-05 21:34 40.48329 -80.12199 2473 ft 147 kts 268°
2026-05-05 21:35 40.48364 -80.13531 2260 ft 145 kts 269°
2026-05-05 21:35 40.48401 -80.14860 2085 ft 147 kts 268°
2026-05-05 21:35 40.48436 -80.16207 1877 ft 145 kts 270°
2026-05-05 21:35 40.48494 -80.17532 1770 ft 147 kts 271°
2026-05-05 21:36 40.48563 -80.18863 1612 ft 145 kts 264°
2026-05-05 21:36 40.48550 -80.20173 1372 ft 141 kts 266°
2026-05-05 21:36 40.48577 -80.21442 1161 ft 134 kts 269°
2026-05-05 21:36 40.48602 -80.22501 1155 ft 88 kts 272°
2026-05-05 21:37 40.48618 -80.22985 1154 ft 35 kts 272°
2026-05-05 21:37 40.48625 -80.23342 1151 ft 34 kts 272°
2026-05-05 21:37 40.48650 -80.23651 1152 ft 35 kts 287°
2026-05-05 21:37 40.48721 -80.23846 1154 ft 13 kts 302°
2026-05-05 21:38 40.48770 -80.23949 1156 ft 14 kts 302°
2026-05-05 21:38 40.48850 -80.24007 1156 ft 15 kts
2026-05-05 21:38 40.48972 -80.23999 1154 ft 19 kts
2026-05-05 21:38 40.49062 -80.23996 1156 ft 0 kts
2026-05-05 21:39 40.49063 -80.23996 1156 ft 0 kts
2026-05-05 21:39 40.49065 -80.23996 1156 ft 2 kts
2026-05-05 21:39 40.49071 -80.23996 1156 ft 1 kts
2026-05-05 21:39 40.49124 -80.23994 1157 ft 14 kts
2026-05-05 21:40 40.49221 -80.23989 1155 ft 8 kts
2026-05-05 21:40 40.49239 -80.23989 1154 ft 3 kts
2026-05-05 21:40 40.49262 -80.23989 1149 ft 5 kts
2026-05-05 21:40 40.49325 -80.23988 1153 ft 12 kts
2026-05-05 21:41 40.49405 -80.24010 1159 ft 12 kts 298°
2026-05-05 21:41 40.49346 -80.24065 1155 ft 16 kts 180°
2026-05-05 21:41 40.49239 -80.24072 1154 ft 7 kts 191°
2026-05-05 21:41 40.49218 -80.24089 1156 ft 4 kts 231°
2026-05-05 21:42 40.49213 -80.24145 1156 ft 8 kts 296°
2026-05-05 21:42 40.49257 -80.24166 1153 ft 1 kts 347°
2026-05-05 21:42 40.49261 -80.24168 1152 ft 0 kts 347°